Location: Antin
(43.3330°N, 0.2804°E)
Time: 22:21:15
(UTC+00:00)

Iridium 4 Rocket - Pass Details

Date: 16 October 2021
Orbit: 586 x 903 km, 86.9° (Epoch: 04 December)

Event Time Altitude Azimuth Distance (km) Brightness Sun altitude
Rises 17:46:39 0° 14° (NNE) 2,886 6.3 -6.7°
Reaches altitude 10° 17:49:25 10° 33° (NNE) 2,015 5.3 -7.2°
Maximum altitude 17:52:32 19° 78° (ENE) 1,568 4.5 -7.8°
Drops below altitude 10° 17:55:48 10° 123° (ESE) 2,120 5.3 -8.3°
Sets 17:58:46 0° 141° (SE) 3,095 6.3 -8.9°
